Location: Bletchingley
(51.2333°N, 0.1000°W)
Time: 14:50:51
(UTC+00:00)

Cosmos 2266 Rocket - Pass Details

Date: 26 January 2021
Orbit: 934 x 1008 km, 82.9° (Epoch: 05 March)

Event Time Altitude Azimuth Distance (km) Brightness Sun altitude
Rises 20:03:31 0° 196° (SSW) 3,678 7.1 -31.5°
Reaches altitude 10° 20:06:03 10° 198° (SSW) 2,724 6.4 -31.9°
Enters shadow 20:10:53 53° 223° (SW) 1,175 4.4 -32.6°
Exits shadow 20:17:33 15° 5° (N) 2,371 6.1 -33.7°
Drops below altitude 10° 20:18:25 10° 6° (N) 2,691 6.3 -33.8°
Sets 20:20:55 0° 9° (N) 3,631 7.0 -34.2°
